Regional Weather Roundup
Issued by NWS Charleston, WV

Home | Current Version | Previous Version | Graphics & Text | Print | Product List | Glossary On
Versions: 1 2 3 4 5 6 7 8 9 10 11 12 13 14 15 16 17 18 19 20 21 22 23 24 25 26 27 28 29 30 31 32 33 34 35 36 37 38 39 40 41 42 43 44 45 46 47 48 49 50
854
ASUS41 KRLX 140010
RWRRLX
West Virginia Regional Weather Roundup
National Weather Service Charleston WV
700 PM EST SAT FEB 13 2016

Note: "fair" indicates few or no clouds below 12,000 feet with no
significant weather and/or obstructions to visibility.

WVZ003-140100-
Northern Panhandle of West Virginia

CITY           SKY/WX    TMP DP  RH WIND       PRES   REMARKS
WHEELING         N/A      9  -6  50 W8        30.42R WCI  -3
$$

WVZ009-140100-
Northwest West Virginia

CITY           SKY/WX    TMP DP  RH WIND       PRES   REMARKS
PARKERSBURG      N/A     11  -4  51 W5        30.52R WCI   3
$$

WVZ006-140100-
Western West Virginia

CITY           SKY/WX    TMP DP  RH WIND       PRES   REMARKS
HUNTINGTON       N/A     17  -3  41 NW8       30.50R WCI   7
$$

WVZ015-140100-
West Central West Virginia

CITY           SKY/WX    TMP DP  RH WIND       PRES   REMARKS
CHARLESTON       N/A     15  -5  40 NW8       30.47R WCI   4
$$

WVZ022-031-140100-
North Central West Virginia

CITY           SKY/WX    TMP DP  RH WIND       PRES   REMARKS
CLARKSBURG     CLOUDY    17  -5  37 NW13      30.43R WCI   4
MORGANTOWN     NOT AVBL
$$

WVZ025-035-042-045-140100-
Southern West Virginia

CITY           SKY/WX    TMP DP  RH WIND       PRES   REMARKS
BECKLEY          N/A     10  -6  48 NW10      30.31R WCI  -4
LOGAN            N/A     16  -4  41 CALM      30.40R
BLUEFIELD        N/A      8  -4  58 NW8       30.28R WCI  -4
LEWISBURG        N/A     13  -5  43 NW3       30.30R
$$

WVZ047-140100-
Northern Mountains of West Virginia

CITY           SKY/WX    TMP DP  RH WIND       PRES   REMARKS
ELKINS         MOCLDY     8  -9  45 NW9       30.34R WCI  -5
$$

WVZ052-140100-
Eastern Panhandle of West Virginia

CITY           SKY/WX    TMP DP  RH WIND       PRES   REMARKS
MARTINSBURG    CLOUDY    13  -7  40 NW10G28   30.39R WCI   0
PETERSBURG       N/A     13  -4  44 CALM      30.40R
$$




USA.gov is the U.S. government's official web portal to all federal, state and local government web resources and services.